Regional Weather Roundup
Issued by NWS

Home | Current Version | Previous Version | Text Only | Print | Product List | Glossary Off
Versions: 1 2 3 4 5 6 7 8 9 10 11 12 13 14 15 16 17 18 19 20 21 22 23 24 25 26 27 28

000
ASUS45 KBOI 040010
RWRID

IDAHO REGIONAL WEATHER ROUNDUP
NATIONAL WEATHER SERVICE BOISE ID
600 PM MDT TUE MAY 03 2016

NOTE: "FAIR" INDICATES FEW OR NO CLOUDS BELOW 12000 FEET
WITH NO SIGNIFICANT WEATHER AND/OR OBSTRUCTIONS TO VISIBILITY

IDZ012-014-040100-
SOUTHWEST IDAHO


CITY           SKY/WX    TMP DP  RH WIND       PRES   REMARKS
BOISE          SUNNY     80  28  15 SE13G20   30.02F
CALDWELL       SUNNY     79  35  20 E13       30.00F
MOUNTAIN HOME  SUNNY     78  31  17 E7G18     30.03F
$$

IDZ016-017-040100-
SOUTHCENTRAL IDAHO


CITY           SKY/WX    TMP DP  RH WIND       PRES   REMARKS
BURLEY         SUNNY     74  33  22 VRB7      30.10F
JEROME         SUNNY     75  33  21 VRB7      30.11F
TWIN FALLS     SUNNY     74  33  22 N8        30.10F
$$

IDZ019>023-040100-
SOUTHEAST IDAHO


CITY           SKY/WX    TMP DP  RH WIND       PRES   REMARKS
IDAHO FALLS    SUNNY     72  21  14 W8        30.17F
POCATELLO      MOSUNNY   73  34  23 NW7       30.16F
REXBURG        SUNNY     71  21  15 VRB3      30.17F
$$

IDZ006-010-011-018-031-032-040100-
CENTRAL IDAHO MOUNTAINS


CITY           SKY/WX    TMP DP  RH WIND       PRES   REMARKS
MCCALL         SUNNY     67  34  29 NW10      30.12F
HAILEY         SUNNY     66  36  32 S10       30.20F
STANLEY          N/A     67  18  15 VRB6      30.19F
SALMON         SUNNY     79  28  15 NE5       30.02F
CHALLIS        SUNNY     76  17  11 SE8       30.09F
$$

IDZ002-004-006-007-026-040100-
NORTHERN IDAHO


CITY           SKY/WX    TMP DP  RH WIND       PRES   REMARKS
LEWISTON       SUNNY     86  41  20 N7        29.93F
LOWELL           N/A     79  46  31 S5        29.92F
COEUR D`ALENE  SUNNY     82  39  21 S9        29.94F
MULLAN PASS    SUNNY     64  23  21 S6        30.16F
$$




USA.gov is the U.S. government's official web portal to all federal, state and local government web resources and services.